Minchumina, AK

8:14 AM AKDT on September 24, 2017 (GMT -0800)
Minchumina

Weather History for PAMH - January, 2013

Change the Weather History Date:

Sunday, January 6, 2013

  Actual Average Record
Temperature  
Mean Temperature 3 °F -  
Max Temperature 8 °F 0 °F 21 °F (2011)
Min Temperature -2 °F -12 °F -56 °F (1997)
Degree Days  
Heating Degree Days 62    
Moisture  
Dew Point 0 °F    
Average Humidity 88    
Maximum Humidity 100    
Minimum Humidity 46    
Precipitation  
Precipitation 0.00 in - - ()
Sea Level Pressure  
Sea Level Pressure 29.30 in    
Wind  
Wind Speed 0 mph (North)    
Max Wind Speed 0 mph    
Max Gust Speed -    
Visibility 10 miles    
Events      
Averages and records for this station are not official NWS values.
T = Trace of Precipitation, MM = Missing Value Source: NWS Daily Summary

Daily Weather History Graph

Daily Weather History Graph

Search for Another Location

Airport or City:

Trip Planner

Search our weather history database for the weather conditions in past years. The results will help you decide how hot, cold, wet, or windy it might be!

Date:

Astronomy

Jan. 06, 2013 Rise Set
Actual Time 10:49 AM AKST 3:41 PM AKST
Civil Twilight 9:38 AM AKST 4:52 PM AKST
Nautical Twilight 8:32 AM AKST 5:58 PM AKST
Astronomical Twilight 7:34 AM AKST 6:57 PM AKST
Moon 4:20 AM AKST (1/6) 12:04 PM AKST (1/6)
Length of Visible Light 7h 14m
Length of Day
4h 51m
Waning Crescent, 31% of the Moon is Illuminated
Jan 6
Waning Crescent
Jan 11
New
Jan 18
First Quarter
Jan 26
Full
Feb 3
Last Quarter

Hourly Weather History & Observations

Time (AKST) Temp. Dew Point Humidity Pressure Visibility Wind Dir Wind Speed Gust Speed Precip Events Conditions
12:16 AM 6.8 °F 5.0 °F 92% 29.34 in 10.0 mi Calm Calm - N/A   Clear
12:36 AM 3.2 °F -2.2 °F 78% 29.35 in 10.0 mi Calm Calm - N/A   Clear
12:56 AM 8.6 °F 8.6 °F 100% 29.35 in 10.0 mi Calm Calm - N/A   Clear
1:16 AM 3.2 °F -4.0 °F 72% 29.35 in 10.0 mi Calm Calm - N/A   Clear
1:36 AM 5.0 °F 1.4 °F 85% 29.36 in 10.0 mi Calm Calm - N/A   Clear
1:56 AM 5.0 °F 5.0 °F 100% 29.36 in 10.0 mi Calm Calm - N/A   Clear
2:16 AM -0.4 °F -5.8 °F 78% 29.37 in 10.0 mi Calm Calm - N/A   Clear
2:36 AM 1.4 °F 1.4 °F 100% 29.37 in 10.0 mi Calm Calm - N/A   Scattered Clouds
3:16 AM 5.0 °F 3.2 °F 92% 29.37 in 10.0 mi Calm Calm - N/A   Overcast
3:36 AM 5.0 °F 1.4 °F 85% 29.38 in 10.0 mi Calm Calm - N/A   Overcast
3:56 AM 5.0 °F 1.4 °F 85% 29.37 in 10.0 mi Calm Calm - N/A   Mostly Cloudy
4:16 AM 5.0 °F 1.4 °F 85% 29.39 in 10.0 mi Calm Calm - N/A   Scattered Clouds
4:36 AM 5.0 °F 1.4 °F 85% 29.38 in 10.0 mi Calm Calm - N/A   Mostly Cloudy
4:56 AM 6.8 °F 1.4 °F 79% 29.37 in 10.0 mi Calm Calm - N/A   Overcast
5:16 AM 6.8 °F 3.2 °F 85% 29.37 in 10.0 mi Calm Calm - N/A   Overcast
5:36 AM 6.8 °F 1.4 °F 79% 29.37 in 10.0 mi Calm Calm - N/A   Overcast
5:56 AM 5.0 °F 1.4 °F 85% 29.37 in 10.0 mi Calm Calm - N/A   Overcast
6:16 AM 3.2 °F 1.4 °F 92% 29.37 in 10.0 mi Calm Calm - N/A   Overcast
6:36 AM 3.2 °F 1.4 °F 92% 29.37 in 10.0 mi Calm Calm - N/A   Scattered Clouds
6:56 AM 1.4 °F -2.2 °F 85% 29.37 in 10.0 mi Calm Calm - N/A   Clear
7:16 AM 1.4 °F -0.4 °F 92% 29.37 in 10.0 mi Calm Calm - N/A   Clear
7:36 AM 1.4 °F -0.4 °F 92% 29.36 in 10.0 mi Calm Calm - N/A   Clear
7:56 AM 3.2 °F 1.4 °F 92% 29.36 in 10.0 mi Calm Calm - N/A   Clear
8:36 AM -0.4 °F -2.2 °F 92% 29.37 in 10.0 mi Calm Calm - N/A   Scattered Clouds
8:56 AM 1.4 °F 1.4 °F 100% 29.36 in 10.0 mi Calm Calm - N/A   Overcast
9:16 AM 3.2 °F -0.4 °F 85% 29.36 in 10.0 mi Calm Calm - N/A   Mostly Cloudy
9:36 AM 3.2 °F 1.4 °F 92% 29.35 in 10.0 mi Calm Calm - N/A   Overcast
9:56 AM 3.2 °F -0.4 °F 85% 29.34 in 10.0 mi Calm Calm - N/A   Overcast
10:16 AM -0.4 °F -5.8 °F 78% 29.34 in 10.0 mi Calm Calm - N/A   Overcast
10:36 AM -0.4 °F -2.2 °F 92% 29.34 in 10.0 mi Calm Calm - N/A   Mostly Cloudy
10:56 AM -0.4 °F -2.2 °F 92% 29.34 in 10.0 mi Calm Calm - N/A   Clear
11:16 AM 1.4 °F -0.4 °F 92% 29.33 in 10.0 mi Calm Calm - N/A   Scattered Clouds
11:36 AM 1.4 °F -2.2 °F 85% 29.33 in 10.0 mi Calm Calm - N/A   Mostly Cloudy
11:56 AM -0.4 °F -2.2 °F 92% 29.34 in 10.0 mi Calm Calm - N/A   Overcast
12:16 PM 5.0 °F 3.2 °F 92% 29.33 in 10.0 mi Calm Calm - N/A   Overcast
12:36 PM 3.2 °F -0.4 °F 85% 29.33 in 10.0 mi Calm Calm - N/A   Mostly Cloudy
12:56 PM 3.2 °F 3.2 °F 100% 29.33 in 10.0 mi Calm Calm - N/A   Mostly Cloudy
1:16 PM -0.4 °F -5.8 °F 78% 29.33 in 10.0 mi Calm Calm - N/A   Mostly Cloudy
1:36 PM 1.4 °F -2.2 °F 85% 29.33 in 10.0 mi Calm Calm - N/A   Overcast
1:56 PM 5.0 °F 3.2 °F 92% 29.31 in 10.0 mi Calm Calm - N/A   Overcast
2:16 PM 1.4 °F 1.4 °F 100% 29.31 in 10.0 mi Calm Calm - N/A   Overcast
2:36 PM 1.4 °F -0.4 °F 92% 29.31 in 10.0 mi Calm Calm - N/A   Overcast
2:56 PM 3.2 °F -0.4 °F 85% 29.30 in 10.0 mi Calm Calm - N/A   Overcast
3:16 PM 3.2 °F 1.4 °F 92% 29.31 in 10.0 mi Calm Calm - N/A   Overcast
3:36 PM 3.2 °F 1.4 °F 92% 29.29 in 10.0 mi Calm Calm - N/A   Overcast
3:56 PM 3.2 °F 1.4 °F 92% 29.29 in 10.0 mi Calm Calm - N/A   Overcast
4:16 PM 5.0 °F 1.4 °F 85% 29.28 in 10.0 mi Calm Calm - N/A   Overcast
4:36 PM 5.0 °F 3.2 °F 92% 29.28 in 10.0 mi Calm Calm - N/A   Overcast
4:56 PM 3.2 °F 1.4 °F 92% 29.28 in 10.0 mi Calm Calm - N/A   Overcast
5:16 PM 3.2 °F -0.4 °F 85% 29.27 in 10.0 mi Calm Calm - N/A   Overcast
5:36 PM 6.8 °F 5.0 °F 92% 29.26 in 10.0 mi Calm Calm - N/A   Scattered Clouds
6:16 PM 6.8 °F 1.4 °F 79% 29.25 in 10.0 mi Calm Calm - N/A   Clear
6:36 PM 3.2 °F -2.2 °F 78% 29.24 in 10.0 mi Calm Calm - N/A   Clear
6:56 PM 3.2 °F 1.4 °F 92% 29.23 in 10.0 mi Calm Calm - N/A   Clear
7:16 PM 1.4 °F 1.4 °F 100% 29.23 in 10.0 mi Calm Calm - N/A   Clear
7:36 PM -0.4 °F -5.8 °F 78% 29.22 in 10.0 mi Calm Calm - N/A   Clear
7:56 PM -0.4 °F -2.2 °F 92% 29.22 in 10.0 mi Calm Calm - N/A   Clear
8:36 PM -0.4 °F -0.4 °F 100% 29.19 in 10.0 mi Calm Calm - N/A   Clear
8:56 PM 3.2 °F 3.2 °F 100% 29.20 in 10.0 mi Calm Calm - N/A   Clear
9:16 PM -2.2 °F -18.4 °F 46% 29.18 in 10.0 mi Calm Calm - N/A   Clear
9:36 PM -0.4 °F -0.4 °F 100% 29.17 in 10.0 mi Calm Calm - N/A   Clear
9:56 PM 3.2 °F 3.2 °F 100% 29.17 in 10.0 mi Calm Calm - N/A   Clear
10:16 PM 1.4 °F -9.4 °F 61% 29.16 in 10.0 mi Calm Calm - N/A   Clear
10:36 PM 3.2 °F 1.4 °F 92% 29.15 in 10.0 mi Calm Calm - N/A   Clear
10:56 PM 6.8 °F 6.8 °F 100% 29.15 in 10.0 mi Calm Calm - N/A   Clear
11:16 PM 3.2 °F -4.0 °F 72% 29.15 in 10.0 mi Calm Calm - N/A   Clear
11:36 PM 5.0 °F 3.2 °F 92% 29.14 in 10.0 mi Calm Calm - N/A   Clear
11:56 PM 3.2 °F -2.2 °F 78% 29.14 in 10.0 mi Calm Calm - N/A   Clear